EW6496 Weather Reports


time (UTC)temp
C
wind
direction
speed
KPH
gust
KPH
rain 1hr
cm
rain 24hr
cm
rain mn
cm
humidity
%
barometer
mb
20260901015709 22 130 0.0 3.2 0.00 0.00 0.00 62 851.9
20260901015207 21 117 0.0 1.6 0.00 0.00 0.00 63 851.9
20260901014706 21 117 0.0 3.2 0.00 0.00 0.00 65 851.8
20260901014205 20 117 1.6 8.0 0.00 0.00 0.00 73 851.4
20260901013703 21 116 3.2 11.3 0.00 0.00 0.00 66 851.4
20260901013500 22 117 4.8 11.3 0.00 0.00 0.00 61 851.4
20260901012703 22 109 4.8 11.3 0.00 0.00 0.00 57 851.6
20260901012203 22 115 4.8 11.3 0.00 0.00 0.00 59 851.9
20260901011702 22 116 4.8 11.3 0.00 0.00 0.00 59 851.7
20260901011204 22 117 4.8 11.3 0.00 0.00 0.00 60 851.6
20260901010659 23 111 4.8 12.9 0.00 0.00 0.00 59 851.6
20260901010153 23 98 4.8 12.9 0.00 0.00 0.00 58 851.4
20260901005647 23 117 4.8 12.9 0.00 0.00 0.00 55 851.3
20260901005143 24 103 4.8 12.9 0.00 0.00 0.00 53 851.3
20260901004643 24 109 3.2 14.5 0.00 0.00 0.00 50 851.3
20260901004443 25 96 3.2 14.5 0.00 0.00 0.00 49 851.1
20260901003643 25 100 1.6 12.9 0.00 0.00 0.00 47 851.3
20260901003142 25 91 0.0 3.2 0.00 0.00 0.00 49 851.0
20260901002645 25 13 0.0 1.6 0.00 0.00 0.00 48 850.7
20260901002144 25 13 0.0 1.6 0.00 0.00 0.00 48 850.8
20260901001642 25 13 0.0 1.6 0.00 0.00 0.00 47 850.7
20260901001140 25 25 0.0 1.6 0.00 0.00 0.00 49 850.8
20260901000637 25 25 0.0 1.6 0.00 0.00 0.00 46 851.0
20260901000135 26 24 0.0 1.6 0.00 0.00 0.00 46 851.1
20260831235633 26 15 0.0 1.6 0.00 0.00 0.00 44 851.0
20260831235427 26 5 1.6 4.8 0.00 0.00 0.00 43 851.0
20260831234632 26 32 1.6 4.8 0.00 0.00 0.00 41 850.9
20260831234134 26 263 0.0 3.2 0.00 0.00 0.00 42 850.8
20260831233631 26 220 0.0 3.2 0.00 0.00 0.00 42 850.9
20260831233133 26 182 0.0 3.2 0.00 0.00 0.00 42 850.9
20260831232631 26 234 0.0 3.2 0.00 0.00 0.00 43 850.9
20260831232133 26 261 0.0 4.8 0.00 0.00 0.00 44 851.1
20260831231627 26 200 1.6 4.8 0.00 0.00 0.00 43 851.1
20260831231120 26 254 1.6 4.8 0.00 0.00 0.00 43 851.3
20260831230618 26 355 1.6 4.8 0.00 0.00 0.00 43 851.3
20260831230419 26 44 1.6 4.8 0.00 0.00 0.00 42 851.4
20260831225618 26 159 1.6 4.8 0.00 0.00 0.00 42 851.5
20260831225118 26 106 1.6 4.8 0.00 0.00 0.00 41 851.4
20260831224620 27 142 3.2 9.7 0.00 0.00 0.00 38 851.4
20260831224417 28 75 3.2 9.7 0.00 0.00 0.00 35 851.6
20260831223617 28 115 1.6 4.8 0.00 0.00 0.00 34 851.7
20260831223116 28 130 1.6 3.2 0.00 0.00 0.00 32 851.7
20260831222616 28 157 1.6 3.2 0.00 0.00 0.00 32 851.9
20260831222120 28 181 0.0 3.2 0.00 0.00 0.00 32 851.9
20260831221617 28 184 0.0 3.2 0.00 0.00 0.00 31 852.0
20260831221417 28 78 1.6 3.2 0.00 0.00 0.00 33 852.0
20260831220617 28 136 1.6 4.8 0.00 0.00 0.00 32 852.0
20260831220116 28 100 0.0 4.8 0.00 0.00 0.00 33 851.9
20260831215617 28 221 0.0 1.6 0.00 0.00 0.00 33 851.9
20260831215202 28 221 0.0 3.2 0.00 0.00 0.00 34 851.9
20260831214412 28 323 0.0 1.6 0.00 0.00 0.00 33 852.0
20260831214011 28 237 0.0 3.2 0.00 0.00 0.00 33 852.0
20260831212612 29 341 0.0 3.2 0.00 0.00 0.00 34 852.0
20260831212406 29 342 0.0 3.2 0.00 0.00 0.00 29 852.0
20260831211614 30 333 0.0 3.2 0.00 0.00 0.00 34 852.1
20260831211110 30 247 0.0 1.6 0.00 0.00 0.00 30 852.2
20260831210608 29 319 1.6 3.2 0.00 0.00 0.00 30 852.1
20260831210409 29 336 1.6 3.2 0.00 0.00 0.00 31 852.0
20260831205649 29 328 1.6 4.8 0.00 0.00 0.00 31 852.3
20260831204607 30 335 1.6 4.8 0.00 0.00 0.00 29 852.3
20260831204110 30 289 1.6 4.8 0.00 0.00 0.00 29 852.3
20260831203608 30 299 1.6 4.8 0.00 0.00 0.00 28 852.3
20260831203107 30 206 1.6 6.4 0.00 0.00 0.00 27 852.3
20260831202608 30 342 1.6 6.4 0.00 0.00 0.00 30 852.3
20260831202106 30 0 1.6 4.8 0.00 0.00 0.00 30 852.3
20260831201605 30 338 1.6 4.8 0.00 0.00 0.00 29 852.3
20260831201105 30 299 3.2 9.7 0.00 0.00 0.00 30 852.3
20260831200605 30 331 3.2 9.7 0.00 0.00 0.00 28 852.4
20260831200106 30 194 1.6 8.0 0.00 0.00 0.00 29 852.6
20260831195606 30 325 1.6 8.0 0.00 0.00 0.00 26 852.5
20260831195105 30 319 3.2 8.0 0.00 0.00 0.00 27 852.6
20260831194605 30 221 3.2 8.0 0.00 0.00 0.00 26 852.6
20260831194102 30 271 1.6 8.0 0.00 0.00 0.00 29 852.6
20260831193602 31 221 1.6 6.4 0.00 0.00 0.00 28 852.6
20260831193104 31 126 3.2 6.4 0.00 0.00 0.00 26 852.7
20260831192859 31 275 3.2 12.9 0.00 0.00 0.00 27 852.7
20260831192103 31 340 3.2 12.9 0.00 0.00 0.00 26 852.7
20260831191603 31 22 1.6 9.7 0.00 0.00 0.00 30 852.8
20260831191404 31 330 1.6 4.8 0.00 0.00 0.00 31 852.8
20260831190858 31 334 1.6 4.8 0.00 0.00 0.00 33 852.8
20260831185602 29 338 1.6 3.2 0.00 0.00 0.00 32 853.0
20260831185103 29 341 1.6 3.2 0.00 0.00 0.00 36 853.1
20260831184900 29 286 0.0 3.2 0.00 0.00 0.00 37 853.2
20260831184106 28 342 0.0 4.8 0.00 0.00 0.00 39 853.3
20260831183906 28 209 1.6 6.4 0.00 0.00 0.00 35 853.4
20260831183106 28 194 1.6 6.4 0.00 0.00 0.00 34 853.5
20260831182904 28 262 0.0 4.8 0.00 0.00 0.00 38 853.5
20260831182107 26 100 0.0 4.8 0.00 0.00 0.00 41 853.5
20260831181558 26 100 0.0 4.8 0.00 0.00 0.00 44 853.7
20260831181048 26 120 0.0 4.8 0.00 0.00 0.00 43 853.7
20260831180543 26 119 1.6 4.8 0.00 0.00 0.00 43 853.7
20260831180335 26 105 1.6 3.2 0.00 0.00 0.00 45 853.8
20260831175536 25 84 0.0 3.2 0.00 0.00 0.00 44 853.9
20260831175035 25 61 0.0 1.6 0.00 0.00 0.00 45 854.0
20260831174825 27 60 1.6 4.8 0.00 0.00 0.00 43 853.9
20260831174329 27 328 1.6 4.8 0.00 0.00 0.00 41 853.9
20260831173532 26 65 0.0 3.2 0.00 0.00 0.00 41 853.9
20260831173119 26 300 0.0 3.2 0.00 0.00 0.00 45 854.0
20260831172114 24 313 0.0 1.6 0.00 0.00 0.00 53 854.1
20260831171326 25 318 0.0 3.2 0.00 0.00 0.00 46 854.1
20260831170829 25 317 0.0 3.2 0.00 0.00 0.00 45 854.2
20260831170032 25 296 0.0 3.2 0.00 0.00 0.00 47 854.2
20260831165612 24 216 0.0 1.6 0.00 0.00 0.00 50 854.1
20260831164531 24 246 0.0 3.2 0.00 0.00 0.00 43 854.2
20260831164033 23 333 0.0 1.6 0.00 0.00 0.00 53 854.3
20260831163531 24 323 0.0 1.6 0.00 0.00 0.00 50 854.2
20260831163032 25 330 0.0 3.2 0.00 0.00 0.00 51 854.2
20260831162531 23 108 0.0 3.2 0.00 0.00 0.00 49 854.2
20260831162329 24 340 1.6 4.8 0.00 0.00 0.00 49 854.2
20260831161532 24 265 1.6 4.8 0.00 0.00 0.00 48 854.4
20260831161031 25 329 0.0 1.6 0.00 0.00 0.00 50 854.4
20260831160535 25 257 0.0 3.2 0.00 0.00 0.00 51 854.3
20260831160325 24 263 1.6 3.2 0.00 0.00 0.00 55 854.3
20260831155515 24 344 0.0 3.2 0.00 0.00 0.00 51 854.4
20260831155006 23 77 1.6 3.2 0.00 0.00 0.00 56 854.2
20260831154807 23 286 0.0 4.8 0.00 0.00 0.00 55 854.1
20260831154006 23 257 0.0 4.8 0.00 0.00 0.00 60 854.2
20260831153507 22 288 0.0 1.6 0.00 0.00 0.00 58 854.3
20260831153007 21 288 0.0 3.2 0.00 0.00 0.00 65 854.2
20260831152507 20 0 0.0 3.2 0.00 0.00 0.00 66 854.2
20260831152006 20 355 0.0 1.6 0.00 0.00 0.00 66 854.2
20260831151512 20 293 0.0 3.2 0.00 0.00 0.00 67 854.3
20260831151010 19 293 1.6 3.2 0.00 0.00 0.00 65 854.3
20260831150508 19 321 1.6 4.8 0.00 0.00 0.00 69 854.2
20260831150302 19 96 1.6 4.8 0.00 0.00 0.00 66 854.0
20260831145451 19 150 1.6 4.8 0.00 0.00 0.00 65 853.7
20260831144952 19 287 1.6 3.2 0.00 0.00 0.00 66 853.9
20260831144450 19 325 0.0 3.2 0.00 0.00 0.00 69 854.2
20260831143951 18 340 0.0 3.2 0.00 0.00 0.00 69 854.4
20260831143528 18 346 1.6 4.8 0.00 0.00 0.00 67 854.4
20260831142448 18 19 1.6 4.8 0.00 0.00 0.00 69 854.2
20260831141949 18 317 1.6 4.8 0.00 0.00 0.00 70 854.2
20260831141449 18 330 1.6 4.8 0.00 0.00 0.00 71 854.2
20260831140945 17 338 1.6 4.8 0.00 0.00 0.00 71 854.1
20260831140432 17 300 1.6 4.8 0.00 0.00 0.00 72 854.1
20260831135933 17 290 1.6 4.8 0.00 0.00 0.00 73 854.2
20260831135733 17 340 1.6 3.2 0.00 0.00 0.00 74 854.1
20260831135234 17 342 1.6 3.2 0.00 0.00 0.00 74 854.1
20260831134731 16 339 1.6 4.8 0.00 0.00 0.00 74 854.1
20260831133940 16 336 1.6 4.8 0.00 0.00 0.00 74 854.1
20260831133729 16 349 1.6 4.8 0.00 0.00 0.00 74 854.0
20260831133226 16 294 1.6 4.8 0.00 0.00 0.00 74 853.9
20260831132432 16 311 0.0 4.8 0.00 0.00 0.00 74 853.8
20260831131929 16 317 0.0 1.6 0.00 0.00 0.00 74 853.9
20260831131424 16 317 0.0 1.6 0.00 0.00 0.00 73 853.8
20260831130926 16 306 0.0 1.6 0.00 0.00 0.00 74 853.7
20260831130720 16 306 0.0 0.0 0.00 0.00 0.00 74 853.5
20260831125925 16 306 0.0 0.0 0.00 0.00 0.00 75 853.5
20260831125424 16 306 0.0 0.0 0.00 0.00 0.00 74 853.5
20260831125223 16 306 0.0 1.6 0.00 0.00 0.00 75 853.4
20260831124424 16 306 0.0 3.2 0.00 0.00 0.00 76 853.3
20260831123927 16 306 0.0 3.2 0.00 0.00 0.00 76 853.1
20260831123420 16 341 0.0 3.2 0.00 0.00 0.00 77 853.2
20260831122921 16 24 0.0 1.6 0.00 0.00 0.00 76 853.1
20260831122422 16 63 0.0 1.6 0.00 0.00 0.00 76 853.2
20260831122311 16 111 0.0 0.0 0.00 0.00 0.00 75 853.2
20260831120921 16 111 0.0 1.6 0.00 0.00 0.00 77 853.1
20260831120420 16 111 0.0 1.6 0.00 0.00 0.00 78 853.1
20260831115921 16 111 0.0 0.0 0.00 0.00 0.00 78 853.1
20260831115719 15 111 0.0 0.0 0.00 0.00 0.00 78 853.0
20260831115213 15 111 0.0 0.0 0.00 0.00 0.00 80 853.0
20260831114406 16 111 0.0 1.6 0.00 0.00 0.00 82 852.9
20260831113906 16 111 0.0 1.6 0.00 0.00 0.00 85 852.9
20260831113406 16 111 0.0 0.0 0.00 0.00 0.00 81 852.9
20260831112903 16 111 0.0 0.0 0.00 0.00 0.00 75 852.9
20260831112404 16 111 0.0 0.0 0.00 0.00 0.00 74 852.9
20260831111903 16 111 0.0 0.0 0.00 0.00 0.00 75 852.9
20260831111404 16 111 0.0 0.0 0.00 0.00 0.00 75 852.9
20260831110903 16 111 0.0 0.0 0.00 0.00 0.00 74 852.9
20260831110405 16 111 0.0 0.0 0.00 0.00 0.00 73 853.0
20260831105903 16 111 0.0 0.0 0.00 0.00 0.00 72 852.9
20260831105705 17 111 0.0 0.0 0.00 0.00 0.00 72 853.0
20260831104904 17 111 0.0 1.6 0.00 0.00 0.00 73 853.1
20260831104403 17 111 0.0 1.6 0.00 0.00 0.00 73 853.1
20260831103904 17 111 0.0 1.6 0.00 0.00 0.00 71 853.1
20260831103702 17 111 0.0 1.6 0.00 0.00 0.00 72 853.1
20260831102903 17 111 0.0 0.0 0.00 0.00 0.00 73 853.0
20260831102404 17 111 0.0 0.0 0.00 0.00 0.00 72 853.1
20260831101905 17 111 1.6 3.2 0.00 0.00 0.00 70 853.0
20260831101403 17 111 1.6 3.2 0.00 0.00 0.00 71 853.1
20260831100905 17 110 0.0 3.2 0.00 0.00 0.00 70 853.1
20260831100402 18 293 0.0 0.0 0.00 0.00 0.00 69 853.1
20260831095902 18 293 0.0 0.0 0.00 0.00 0.00 69 853.1
20260831095700 17 293 0.0 0.0 0.00 0.00 0.00 70 853.0
20260831095158 17 293 0.0 0.0 0.00 0.00 0.00 70 852.7
20260831094403 17 293 0.0 0.0 0.00 0.00 0.00 71 852.7
20260831093906 17 293 0.0 0.0 0.00 0.00 0.00 71 852.7
20260831093658 17 293 0.0 0.0 0.00 0.00 0.00 71 852.6
20260831092853 17 293 0.0 0.0 0.00 0.00 0.00 70 852.6
20260831092342 17 293 0.0 0.0 0.00 0.00 0.00 69 852.6
20260831091838 18 293 0.0 1.6 0.00 0.00 0.00 68 852.6
20260831091339 18 293 0.0 1.6 0.00 0.00 0.00 70 852.6
20260831091136 18 293 0.0 0.0 0.00 0.00 0.00 68 852.5
20260831090415 18 293 0.0 0.0 0.00 0.00 0.00 68 852.6
20260831085337 18 293 0.0 0.0 0.00 0.00 0.00 67 852.3
20260831084835 18 293 0.0 0.0 0.00 0.00 0.00 66 852.3
20260831084335 18 293 0.0 0.0 0.00 0.00 0.00 66 852.4
20260831084135 18 293 0.0 0.0 0.00 0.00 0.00 66 852.3
20260831083333 18 293 0.0 0.0 0.00 0.00 0.00 66 852.2
20260831082831 18 293 0.0 0.0 0.00 0.00 0.00 67 852.4
20260831082624 18 293 0.0 0.0 0.00 0.00 0.00 66 852.4
20260831082127 18 293 0.0 0.0 0.00 0.00 0.00 65 852.3
20260831081325 18 293 0.0 0.0 0.00 0.00 0.00 65 852.4
20260831080825 18 293 0.0 0.0 0.00 0.00 0.00 64 852.5
20260831080321 19 293 0.0 1.6 0.00 0.00 0.00 64 852.5
20260831075818 19 293 0.0 1.6 0.00 0.00 0.00 63 852.6
20260831075316 19 293 0.0 1.6 0.00 0.00 0.00 62 852.8
20260831074816 19 277 0.0 3.2 0.00 0.00 0.00 62 852.8
20260831074313 19 328 0.0 3.2 0.00 0.00 0.00 62 852.9
20260831073813 19 236 0.0 3.2 0.00 0.00 0.00 61 853.0
20260831073312 20 332 1.6 3.2 0.00 0.00 0.00 61 853.1
20260831072813 20 11 1.6 3.2 0.00 0.00 0.00 60 853.3
20260831072310 20 345 1.6 3.2 0.00 0.00 0.00 60 853.4
20260831071810 20 317 0.0 1.6 0.00 0.00 0.00 59 853.4
20260831071309 20 334 1.6 3.2 0.00 0.00 0.00 58 853.6
20260831070807 20 342 1.6 4.8 0.00 0.00 0.00 57 853.6
20260831070307 20 340 1.6 4.8 0.00 0.00 0.00 57 853.8
20260831065805 20 246 1.6 4.8 0.00 0.00 0.00 57 853.9
20260831065306 20 340 0.0 3.2 0.00 0.00 0.00 56 853.9
20260831064804 20 261 0.0 3.2 0.00 0.00 0.00 55 854.0
20260831064303 20 296 0.0 3.2 0.00 0.00 0.00 55 853.9
20260831063804 20 273 0.0 3.2 0.00 0.00 0.00 55 853.9
20260831063303 20 21 1.6 3.2 0.00 0.00 0.00 55 853.9
20260831063113 20 321 1.6 3.2 0.00 0.00 0.00 55 853.7
20260831062305 20 317 0.0 3.2 0.00 0.00 0.00 55 853.7
20260831061803 20 87 0.0 3.2 0.00 0.00 0.00 57 853.7
20260831061302 20 355 0.0 3.2 0.00 0.00 0.00 58 853.7
20260831060803 20 355 0.0 3.2 0.00 0.00 0.00 58 853.7
20260831060348 20 26 0.0 1.6 0.00 0.00 0.00 58 853.6
20260831055306 20 124 0.0 1.6 0.00 0.00 0.00 57 853.8
20260831054804 20 124 0.0 1.6 0.00 0.00 0.00 56 853.8
20260831054306 20 107 0.0 1.6 0.00 0.00 0.00 56 854.0
20260831053803 20 107 0.0 3.2 0.00 0.00 0.00 57 854.0
20260831053305 20 107 0.0 3.2 0.00 0.00 0.00 55 854.0
20260831053106 20 335 0.0 3.2 0.00 0.00 0.00 56 854.0
20260831052307 20 335 0.0 3.2 0.00 0.00 0.00 58 854.0
20260831051804 20 335 0.0 3.2 0.00 0.00 0.00 57 854.1
20260831051304 20 340 0.0 3.2 0.00 0.00 0.00 58 854.2
20260831050805 20 321 0.0 3.2 0.00 0.00 0.00 58 854.2
20260831050556 21 310 0.0 1.6 0.00 0.00 0.00 57 854.2
20260831045805 21 310 0.0 1.6 0.00 0.00 0.00 56 854.1
20260831045306 21 307 0.0 1.6 0.00 0.00 0.00 56 854.1
20260831045108 21 306 0.0 3.2 0.00 0.00 0.00 57 854.1
20260831044350 21 246 0.0 3.2 0.00 0.00 0.00 56 854.1
20260831043303 21 340 0.0 1.6 0.00 0.00 0.00 56 854.0
20260831042803 21 325 0.0 1.6 0.00 0.00 0.00 56 853.8
20260831042306 21 325 0.0 1.6 0.00 0.00 0.00 56 853.7
20260831041802 21 325 0.0 1.6 0.00 0.00 0.00 54 853.7
20260831041303 21 322 0.0 1.6 0.00 0.00 0.00 55 853.6
20260831040803 21 322 0.0 1.6 0.00 0.00 0.00 53 853.7
20260831040344 21 322 0.0 1.6 0.00 0.00 0.00 53 853.7
20260831035306 21 330 0.0 0.0 0.00 0.00 0.00 53 853.7
20260831035105 21 330 0.0 1.6 0.00 0.00 0.00 54 853.6
20260831034303 21 330 0.0 1.6 0.00 0.00 0.00 54 853.6
20260831033802 21 330 0.0 0.0 0.00 0.00 0.00 55 853.5
20260831033555 21 330 0.0 0.0 0.00 0.00 0.00 54 853.3
20260831032805 22 330 0.0 0.0 0.00 0.00 0.00 52 853.2
20260831032306 22 330 0.0 0.0 0.00 0.00 0.00 52 853.3
20260831031806 22 330 0.0 0.0 0.00 0.00 0.00 51 853.4
20260831031307 22 330 0.0 1.6 0.00 0.00 0.00 50 853.4
20260831030806 22 330 0.0 1.6 0.00 0.00 0.00 51 853.4
20260831030600 22 330 0.0 3.2 0.00 0.00 0.00 49 853.1
20260831025803 22 319 0.0 3.2 0.00 0.00 0.00 50 852.9
20260831025306 22 247 1.6 1.6 0.00 0.00 0.00 50 852.6
20260831024803 23 277 1.6 3.2 0.00 0.00 0.00 49 852.3
20260831024302 23 298 1.6 3.2 0.00 0.00 0.00 49 852.3
20260831023805 23 338 0.0 3.2 0.00 0.00 0.00 48 852.2
20260831023303 23 92 0.0 3.2 0.00 0.00 0.00 48 852.1
20260831022804 23 5 0.0 1.6 0.00 0.00 0.00 48 851.9
20260831022306 23 240 0.0 1.6 0.00 0.00 0.00 47 851.9
20260831021802 23 243 0.0 1.6 0.00 0.00 0.00 48 851.8
20260831021302 23 281 0.0 1.6 0.00 0.00 0.00 47 851.7
20260831020803 23 324 1.6 4.8 0.00 0.00 0.00 46 851.6
20260831020303 23 306 1.6 8.0 0.00 0.00 0.00 47 851.5